Regional Weather Roundup
Issued by NWS

Home | Current Version | Previous Version | Text Only | Print | Product List | Glossary Off
Versions: 1 2 3 4 5 6 7 8 9 10 11 12 13 14 15 16 17 18 19 20 21 22 23 24 25 26 27 28 29 30 31 32 33 34 35 36 37 38 39 40 41 42 43 44 45 46 47 48 49 50

179
ASUS43 KDMX 250903
RWRIA

WEATHER ROUNDUP FOR IOWA
NATIONAL WEATHER SERVICE DES MOINES IA
400 AM CDT WED MAY 25 2016

NOTE: "FAIR" INDICATES FEW OR NO CLOUDS BELOW 12,000 FEET WITH NO
SIGNIFICANT WEATHER AND/OR OBSTRUCTIONS TO VISIBILITY.

* - THESE STATIONS ARE NOT NWS STATIONS...THUS NOT UNDER NWS
QUALITY CONTROL.  THEY ALSO DO NOT REPORT WEATHER SUCH
AS PRECIPITATION OR FOG.

IAZ001>003-012>014-020>022-031>034-043>046-251000-
   NORTHWEST IOWA

CITY           SKY/WX    TMP DP  RH WIND       PRES   REMARKS
CARROLL *      CLOUDY    64  64 100 SW7       29.87R
CHEROKEE *     CLOUDY    66  64  93 S5        29.84R
DENISON *      CLOUDY    66  59  77 VRB7G15   29.81F
LE MARS *      CLOUDY    68  64  88 SE10      29.80F
ORANGE CITY *  LGT RAIN  66  63  88 SE6       29.82R
SHELDON *      CLOUDY    66  63  88 SE9       29.81S
SIOUX CITY     CLOUDY    68  58  70 S8        29.80S
SPENCER        RAIN      65  61  87 SE7       29.82F
STORM LAKE *   CLOUDY    64  63  94 S7        29.86R
$$

IAZ055>058-069>071-079>083-090>094-251000-
   SOUTHWEST IOWA

CITY           SKY/WX    TMP DP  RH WIND       PRES   REMARKS
ATLANTIC *     CLOUDY    66  64  94 SW7       29.85R
AUDUBON *      LGT RAIN  64  61  88 CALM      29.85S
CLARINDA *       N/A     66  63  88 MISG      29.86R
COUNCIL BLFS * MOCLDY    63  61  94 SE6       29.82R
CRESTON *      MOCLDY    66  64  94 S23G29    29.87R
HARLAN  *        N/A    N/A N/A N/A MISG        N/A
LAMONI         CLOUDY    66  64  93 S13       29.86R
RED OAK *      CLOUDY    66  63  88 CALM      29.83F
SHENANDOAH *   CLOUDY    66  64  94 SE7       29.85S
$$

IAZ047>049-059>061-072>074-084-251000-
   CENTRAL IOWA

CITY           SKY/WX    TMP DP  RH WIND       PRES   REMARKS
AMES           CLOUDY    65  63  93 SE5       29.85F
ANKENY *       CLOUDY    66  66 100 SE8       29.86R
BOONE *        CLOUDY    64  64 100 E7        29.84S
CHARITON *     CLOUDY    64  64 100 SE12      29.85F
DES MOINES     CLOUDY    67  63  87 SE7       29.85R
GRINNELL*      CLOUDY    64  63  94 SE6       29.88F
KNOXVILLE *    MOCLDY    64  63  94 SE6       29.85S
MARSHALLTOWN   CLOUDY    63  62  97 E7        29.86F
NEWTON *       CLOUDY    64  64 100 SE9       29.86S
PELLA *        CLOUDY    65  63  94 SE7       29.89R
PERRY *        MOCLDY    66  64  94 SE6       29.84R
$$

IAZ004>006-015-016-023>025-035-036-251000-
   NORTH CENTRAL IOWA

CITY           SKY/WX    TMP DP  RH WIND       PRES   REMARKS
ALGONA *       MOCLDY    64  61  88 SE7       29.85F
CLARION *      CLOUDY    64  63  94 E9        29.84F
ESTHERVILLE    CLOUDY    63  61  93 E10       29.83F
FORT DODGE *   CLOUDY    64  59  82 E7        29.83F
MASON CITY     PTCLDY    61  59  93 SE3       29.88F
FOREST CITY *    N/A     61  61 100 CALM      29.87F
WEBSTER CITY * CLOUDY    63  63 100 E8        29.83F
IOWA FALLS *     N/A     64  61  88 E5        29.87F
$$

IAZ007>011-017>019-026>030-037>042-050>054-066-251000-
   NORTHEAST IOWA

CITY           SKY/WX    TMP DP  RH WIND       PRES   REMARKS
CEDAR RAPIDS   CLOUDY    63  63 100 SE5       29.89F
CHARLES CITY * CLEAR     63  61  94 E8        29.90F
CLINTON *      CLEAR     64  61  90 SE7       29.93F
DECORAH *      CLOUDY    64  61  88 VRB5      29.91F FOG
DUBUQUE        CLEAR     63  60  90 CALM      29.94F
MONTICELLO *   CLOUDY    64  63  94 E5        29.92F
OELWEIN *      CLOUDY    64  63  94 SE7       29.91F
WATERLOO       CLOUDY    65  62  90 SE5       29.88F
$$

IAZ064-065-067-068-078-251000-
   EAST CENTRAL IOWA

CITY           SKY/WX    TMP DP  RH WIND       PRES   REMARKS
DAVENPORT      MOCLDY    64  60  87 SE7       29.93F
IOWA CITY      MOCLDY    63  61  93 SE3       29.90F
MT. PLEASANT * CLOUDY    64  64 100 SE6       29.90F
MUSCATINE *    PTCLDY    61  59  94 CALM      29.91F
QUAD CITIES    CLOUDY    64  59  83 E7        29.92F
$$

IAZ062-063-075>077-085>089-095>099-251000-
   SOUTHEAST IOWA

CITY           SKY/WX    TMP DP  RH WIND       PRES   REMARKS
BURLINGTON     CLOUDY    63  63 100 SE7       29.91F
FAIRFIELD *      N/A    N/A N/A N/A MISG        N/A
FORT MADISON * CLOUDY    63  63 100 S7        29.93S
KEOKUK *       CLOUDY    64  63  94 S6        29.93S
OSKALOOSA *      N/A     63  61  94 SE9       29.89S
OTTUMWA        CLOUDY    64  62  93 SE8       29.88F
WASHINGTON *   CLEAR     61  61 100 SE7       29.90F
$$

ABBREVIATIONS USED IN REMARKS
   TC - TEMPERATURES IN CELSIUS
  WCI - WIND CHILL INDEX
   HX - HEAT INDEX
  VSB - VISIBILITY
$$





USA.gov is the U.S. government's official web portal to all federal, state and local government web resources and services.